| time (UTC) | temp F | wind direction | speed MPH | gust MPH | rain 1hr in | rain 24hr in | rain mn in | humidity % | barometer mb |
| 20260510215025 | 74 | 259 | 5.0 | 11.0 | 0.00 | 0.00 | 0.00 | 63 | 1013.8 |
| 20260510214004 | 72 | 245 | 5.0 | 11.0 | 0.00 | 0.00 | 0.00 | 65 | 1013.8 |
| 20260510213004 | 73 | 245 | 4.0 | 12.0 | 0.00 | 0.00 | 0.00 | 64 | 1013.8 |
| 20260510211004 | 71 | 239 | 5.0 | 16.0 | 0.00 | 0.00 | 0.00 | 66 | 1013.9 |
| 20260510210004 | 72 | 238 | 5.0 | 12.0 | 0.00 | 0.00 | 0.00 | 66 | 1013.9 |
| 20260510205004 | 71 | 242 | 5.0 | 11.0 | 0.00 | 0.00 | 0.00 | 69 | 1014.1 |
| 20260510204004 | 71 | 236 | 4.0 | 10.0 | 0.00 | 0.00 | 0.00 | 68 | 1014.1 |
| 20260510203004 | 70 | 243 | 4.0 | 10.0 | 0.00 | 0.00 | 0.00 | 70 | 1014.3 |
| 20260510202004 | 71 | 263 | 5.0 | 12.0 | 0.00 | 0.00 | 0.00 | 70 | 1014.4 |
| 20260510201004 | 70 | 246 | 5.0 | 10.0 | 0.00 | 0.00 | 0.00 | 70 | 1014.5 |
| 20260510200004 | 70 | 245 | 5.0 | 14.0 | 0.00 | 0.00 | 0.00 | 68 | 1014.5 |
| 20260510195004 | 70 | 254 | 6.0 | 12.0 | 0.00 | 0.00 | 0.00 | 69 | 1014.5 |
| 20260510194003 | 71 | 257 | 5.0 | 12.0 | 0.00 | 0.00 | 0.00 | 68 | 1014.5 |
| 20260510193004 | 71 | 246 | 5.0 | 11.0 | 0.00 | 0.00 | 0.00 | 68 | 1014.6 |
| 20260510192004 | 71 | 245 | 5.0 | 12.0 | 0.00 | 0.00 | 0.00 | 69 | 1014.6 |
| 20260510191004 | 71 | 246 | 5.0 | 13.0 | 0.00 | 0.00 | 0.00 | 68 | 1014.4 |
| 20260510190004 | 71 | 251 | 5.0 | 14.0 | 0.00 | 0.00 | 0.00 | 68 | 1014.4 |
| 20260510185025 | 71 | 259 | 5.0 | 13.0 | 0.00 | 0.00 | 0.00 | 68 | 1014.4 |
| 20260510183004 | 70 | 226 | 4.0 | 10.0 | 0.00 | 0.00 | 0.00 | 70 | 1014.5 |
| 20260510182004 | 70 | 267 | 3.0 | 9.0 | 0.00 | 0.00 | 0.00 | 70 | 1014.4 |
| 20260510180025 | 69 | 270 | 3.0 | 11.0 | 0.00 | 0.00 | 0.00 | 72 | 1014.4 |
| 20260510175004 | 68 | 271 | 4.0 | 11.0 | 0.00 | 0.00 | 0.00 | 73 | 1014.4 |
| 20260510173004 | 67 | 264 | 2.0 | 7.0 | 0.00 | 0.00 | 0.00 | 74 | 1014.4 |
| 20260510172004 | 66 | 245 | 2.0 | 5.0 | 0.00 | 0.00 | 0.00 | 78 | 1014.3 |
| 20260510171025 | 64 | 229 | 1.0 | 6.0 | 0.00 | 0.00 | 0.00 | 81 | 1014.3 |
| 20260510170004 | 62 | 170 | 1.0 | 5.0 | 0.00 | 0.00 | 0.00 | 83 | 1014.3 |
| 20260510165003 | 62 | 164 | 0.0 | 3.0 | 0.00 | 0.00 | 0.00 | 84 | 1014.3 |
| 20260510164003 | 60 | 165 | 1.0 | 3.0 | 0.00 | 0.00 | 0.00 | 88 | 1014.2 |
| 20260510163004 | 60 | 162 | 0.0 | 3.0 | 0.00 | 0.00 | 0.00 | 89 | 1014.2 |
| 20260510162004 | 59 | 0 | 0.0 | 2.0 | 0.00 | 0.00 | 0.00 | 91 | 1014.2 |
| 20260510161003 | 58 | 158 | 0.0 | 2.0 | 0.00 | 0.00 | 0.00 | 91 | 1014.1 |
| 20260510160025 | 58 | 158 | 1.0 | 2.0 | 0.00 | 0.00 | 0.00 | 91 | 1014.2 |
| 20260510155003 | 58 | 163 | 1.0 | 3.0 | 0.00 | 0.00 | 0.00 | 92 | 1014.2 |
| 20260510153004 | 58 | 172 | 0.0 | 2.0 | 0.00 | 0.00 | 0.00 | 92 | 1014.1 |
| 20260510152025 | 57 | 172 | 1.0 | 3.0 | 0.00 | 0.00 | 0.00 | 92 | 1014.2 |
| 20260510151004 | 57 | 172 | 2.0 | 5.0 | 0.00 | 0.00 | 0.00 | 92 | 1014.2 |
| 20260510150004 | 57 | 173 | 2.0 | 5.0 | 0.00 | 0.00 | 0.00 | 92 | 1014.3 |
| 20260510145025 | 57 | 173 | 2.0 | 3.0 | 0.00 | 0.00 | 0.00 | 93 | 1014.2 |
| 20260510144004 | 56 | 173 | 2.0 | 3.0 | 0.00 | 0.00 | 0.00 | 92 | 1014.2 |
| 20260510143004 | 56 | 173 | 1.0 | 3.0 | 0.00 | 0.00 | 0.00 | 92 | 1014.2 |
| 20260510142004 | 56 | 173 | 0.0 | 3.0 | 0.00 | 0.00 | 0.00 | 92 | 1014.2 |
| 20260510141004 | 56 | 173 | 1.0 | 5.0 | 0.00 | 0.00 | 0.00 | 92 | 1014.1 |
| 20260510140025 | 56 | 180 | 3.0 | 6.0 | 0.00 | 0.00 | 0.00 | 92 | 1014.0 |
| 20260510135004 | 56 | 192 | 2.0 | 5.0 | 0.00 | 0.00 | 0.00 | 92 | 1013.9 |
| 20260510134003 | 56 | 203 | 2.0 | 6.0 | 0.00 | 0.00 | 0.00 | 92 | 1013.8 |
| 20260510133004 | 56 | 207 | 1.0 | 4.0 | 0.00 | 0.00 | 0.00 | 92 | 1013.7 |
| 20260510132025 | 56 | 208 | 1.0 | 3.0 | 0.00 | 0.00 | 0.00 | 92 | 1013.6 |
| 20260510131025 | 56 | 208 | 2.0 | 3.0 | 0.00 | 0.00 | 0.00 | 92 | 1013.5 |
| 20260510130004 | 56 | 208 | 2.0 | 3.0 | 0.00 | 0.00 | 0.00 | 92 | 1013.6 |
| 20260510125025 | 56 | 208 | 2.0 | 5.0 | 0.00 | 0.00 | 0.00 | 91 | 1013.5 |
| 20260510121024 | 56 | 210 | 2.0 | 4.0 | 0.00 | 0.00 | 0.00 | 91 | 1013.4 |
| 20260510120004 | 56 | 210 | 2.0 | 4.0 | 0.00 | 0.00 | 0.00 | 91 | 1013.3 |
| 20260510115003 | 56 | 212 | 1.0 | 4.0 | 0.00 | 0.00 | 0.00 | 91 | 1013.2 |
| 20260510114024 | 56 | 212 | 1.0 | 4.0 | 0.00 | 0.00 | 0.00 | 91 | 1013.2 |
| 20260510113003 | 56 | 213 | 2.0 | 3.0 | 0.00 | 0.00 | 0.00 | 91 | 1013.2 |
| 20260510112003 | 56 | 213 | 1.0 | 3.0 | 0.00 | 0.00 | 0.00 | 91 | 1013.1 |
| 20260510111003 | 56 | 213 | 1.0 | 3.0 | 0.00 | 0.00 | 0.00 | 91 | 1013.1 |
| 20260510110003 | 56 | 213 | 0.0 | 2.0 | 0.00 | 0.00 | 0.00 | 91 | 1013.1 |
| 20260510105003 | 56 | 213 | 1.0 | 3.0 | 0.00 | 0.00 | 0.00 | 91 | 1013.1 |
| 20260510104004 | 56 | 213 | 0.0 | 3.0 | 0.00 | 0.00 | 0.00 | 90 | 1013.1 |
| 20260510103024 | 55 | 0 | 0.0 | 0.0 | 0.00 | 0.00 | 0.00 | 90 | 1013.0 |
| 20260510102003 | 56 | 213 | 1.0 | 2.0 | 0.00 | 0.00 | 0.00 | 90 | 1012.8 |
| 20260510101003 | 56 | 213 | 1.0 | 3.0 | 0.00 | 0.00 | 0.00 | 90 | 1012.9 |
| 20260510100024 | 56 | 214 | 0.0 | 3.0 | 0.00 | 0.00 | 0.00 | 91 | 1012.9 |
| 20260510095003 | 56 | 214 | 1.0 | 2.0 | 0.00 | 0.00 | 0.00 | 90 | 1013.0 |
| 20260510094024 | 56 | 0 | 0.0 | 2.0 | 0.00 | 0.00 | 0.00 | 90 | 1013.0 |
| 20260510092003 | 55 | 214 | 0.0 | 2.0 | 0.00 | 0.00 | 0.00 | 90 | 1013.2 |
| 20260510091024 | 55 | 0 | 0.0 | 3.0 | 0.00 | 0.00 | 0.00 | 89 | 1013.1 |
| 20260510090003 | 55 | 213 | 0.0 | 1.0 | 0.00 | 0.00 | 0.00 | 88 | 1013.1 |
| 20260510085003 | 55 | 213 | 1.0 | 2.0 | 0.00 | 0.00 | 0.00 | 88 | 1012.9 |
| 20260510084003 | 55 | 213 | 0.0 | 3.0 | 0.00 | 0.00 | 0.00 | 88 | 1012.9 |
| 20260510083003 | 55 | 0 | 0.0 | 0.0 | 0.00 | 0.00 | 0.00 | 88 | 1012.9 |
| 20260510082025 | 55 | 0 | 0.0 | 0.0 | 0.00 | 0.00 | 0.00 | 87 | 1012.9 |
| 20260510081005 | 55 | 0 | 0.0 | 0.0 | 0.00 | 0.00 | 0.00 | 87 | 1013.1 |
| 20260510080004 | 55 | 0 | 0.0 | 0.0 | 0.00 | 0.00 | 0.00 | 86 | 1013.2 |
| 20260510075004 | 55 | 0 | 0.0 | 0.0 | 0.00 | 0.00 | 0.00 | 86 | 1013.2 |
| 20260510074004 | 55 | 0 | 0.0 | 0.0 | 0.00 | 0.00 | 0.00 | 86 | 1013.3 |
| 20260510073026 | 56 | 0 | 0.0 | 0.0 | 0.00 | 0.00 | 0.00 | 86 | 1013.3 |
| 20260510071004 | 56 | 0 | 0.0 | 0.0 | 0.00 | 0.00 | 0.00 | 85 | 1013.4 |
| 20260510070005 | 56 | 0 | 0.0 | 0.0 | 0.00 | 0.00 | 0.00 | 85 | 1013.5 |
| 20260510065004 | 56 | 0 | 0.0 | 0.0 | 0.00 | 0.00 | 0.00 | 85 | 1013.4 |
| 20260510064025 | 56 | 0 | 0.0 | 0.0 | 0.00 | 0.00 | 0.00 | 85 | 1013.5 |
| 20260510063004 | 57 | 0 | 0.0 | 0.0 | 0.00 | 0.00 | 0.00 | 84 | 1013.5 |
| 20260510062004 | 57 | 0 | 0.0 | 0.0 | 0.00 | 0.00 | 0.00 | 84 | 1013.5 |
| 20260510061004 | 57 | 0 | 0.0 | 0.0 | 0.00 | 0.00 | 0.00 | 84 | 1013.4 |
| 20260510060025 | 57 | 0 | 0.0 | 0.0 | 0.00 | 0.00 | 0.00 | 83 | 1013.6 |
| 20260510055004 | 58 | 0 | 0.0 | 0.0 | 0.00 | 0.00 | 0.00 | 83 | 1013.5 |
| 20260510054025 | 58 | 0 | 0.0 | 0.0 | 0.00 | 0.00 | 0.00 | 83 | 1013.4 |
| 20260510053025 | 58 | 0 | 0.0 | 0.0 | 0.00 | 0.00 | 0.00 | 83 | 1013.5 |
| 20260510052004 | 58 | 0 | 0.0 | 0.0 | 0.00 | 0.00 | 0.00 | 83 | 1013.5 |
| 20260510051004 | 58 | 0 | 0.0 | 0.0 | 0.00 | 0.00 | 0.00 | 84 | 1013.5 |
| 20260510050005 | 58 | 0 | 0.0 | 1.0 | 0.00 | 0.00 | 0.00 | 83 | 1013.4 |
| 20260510045004 | 58 | 0 | 0.0 | 0.0 | 0.00 | 0.00 | 0.00 | 82 | 1013.3 |
| 20260510044004 | 59 | 0 | 0.0 | 0.0 | 0.00 | 0.00 | 0.00 | 82 | 1013.2 |
| 20260510043025 | 59 | 0 | 0.0 | 0.0 | 0.00 | 0.00 | 0.00 | 82 | 1013.2 |
| 20260510042005 | 59 | 0 | 0.0 | 0.0 | 0.00 | 0.00 | 0.00 | 81 | 1013.0 |
| 20260510041004 | 59 | 0 | 0.0 | 0.0 | 0.00 | 0.00 | 0.00 | 81 | 1013.0 |
| 20260510040004 | 60 | 0 | 0.0 | 0.0 | 0.00 | 0.00 | 0.00 | 81 | 1012.9 |
| 20260510035004 | 60 | 0 | 0.0 | 0.0 | 0.00 | 0.00 | 0.00 | 81 | 1012.7 |
| 20260510034005 | 60 | 0 | 0.0 | 0.0 | 0.00 | 0.00 | 0.00 | 81 | 1012.7 |
| 20260510033025 | 60 | 0 | 0.0 | 0.0 | 0.00 | 0.00 | 0.00 | 80 | 1012.7 |
| 20260510032004 | 60 | 0 | 0.0 | 0.0 | 0.00 | 0.00 | 0.00 | 80 | 1012.6 |
| 20260510031004 | 61 | 0 | 0.0 | 0.0 | 0.00 | 0.00 | 0.00 | 80 | 1012.5 |
| 20260510030004 | 61 | 0 | 0.0 | 1.0 | 0.00 | 0.00 | 0.00 | 80 | 1012.4 |
| 20260510025004 | 61 | 213 | 0.0 | 2.0 | 0.00 | 0.00 | 0.00 | 80 | 1012.4 |
| 20260510024004 | 61 | 213 | 1.0 | 2.0 | 0.00 | 0.00 | 0.00 | 79 | 1012.3 |
| 20260510023004 | 62 | 213 | 1.0 | 3.0 | 0.00 | 0.00 | 0.00 | 79 | 1012.4 |
| 20260510022004 | 62 | 213 | 2.0 | 4.0 | 0.00 | 0.00 | 0.00 | 79 | 1012.5 |
| 20260510021025 | 62 | 215 | 2.0 | 5.0 | 0.00 | 0.00 | 0.00 | 78 | 1012.4 |
| 20260510020005 | 63 | 220 | 2.0 | 6.0 | 0.00 | 0.00 | 0.00 | 77 | 1012.4 |
| 20260510015004 | 63 | 246 | 2.0 | 6.0 | 0.00 | 0.00 | 0.00 | 77 | 1012.3 |
| 20260510014004 | 64 | 253 | 2.0 | 8.0 | 0.00 | 0.00 | 0.00 | 76 | 1012.3 |
| 20260510013004 | 64 | 286 | 2.0 | 6.0 | 0.00 | 0.00 | 0.00 | 75 | 1012.2 |
| 20260510012004 | 65 | 249 | 4.0 | 9.0 | 0.00 | 0.00 | 0.00 | 73 | 1012.3 |
| 20260510011004 | 66 | 244 | 5.0 | 11.0 | 0.00 | 0.00 | 0.00 | 71 | 1012.3 |
| 20260510010004 | 68 | 255 | 4.0 | 11.0 | 0.00 | 0.00 | 0.00 | 68 | 1012.5 |
| 20260510005004 | 68 | 267 | 5.0 | 10.0 | 0.00 | 0.00 | 0.00 | 68 | 1012.3 |
| 20260510004004 | 69 | 254 | 4.0 | 11.0 | 0.00 | 0.00 | 0.00 | 67 | 1012.3 |
| 20260510003004 | 69 | 260 | 4.0 | 10.0 | 0.00 | 0.00 | 0.00 | 67 | 1012.4 |
| 20260510002004 | 69 | 247 | 5.0 | 12.0 | 0.00 | 0.00 | 0.00 | 67 | 1012.3 |
| 20260510001004 | 70 | 249 | 4.0 | 10.0 | 0.00 | 0.00 | 0.00 | 66 | 1012.3 |
| 20260510000004 | 71 | 259 | 6.0 | 11.0 | 0.00 | 0.00 | 0.00 | 65 | 1012.3 |
| 20260509235025 | 72 | 256 | 5.0 | 11.0 | 0.00 | 0.00 | 0.00 | 64 | 1012.2 |
| 20260509234004 | 73 | 254 | 4.0 | 12.0 | 0.00 | 0.00 | 0.00 | 63 | 1012.2 |
| 20260509233025 | 73 | 265 | 5.0 | 10.0 | 0.00 | 0.00 | 0.00 | 63 | 1012.2 |
| 20260509232004 | 72 | 249 | 5.0 | 12.0 | 0.00 | 0.00 | 0.00 | 64 | 1012.2 |
| 20260509231025 | 73 | 258 | 4.0 | 12.0 | 0.00 | 0.00 | 0.00 | 62 | 1012.3 |
| 20260509230004 | 74 | 274 | 4.0 | 9.0 | 0.00 | 0.00 | 0.00 | 63 | 1012.3 |
| 20260509225025 | 73 | 244 | 5.0 | 14.0 | 0.00 | 0.00 | 0.00 | 65 | 1012.5 |
| 20260509224004 | 74 | 246 | 5.0 | 11.0 | 0.00 | 0.00 | 0.00 | 64 | 1012.6 |
| 20260509223004 | 73 | 258 | 5.0 | 11.0 | 0.00 | 0.00 | 0.00 | 64 | 1012.8 |
| 20260509222004 | 74 | 246 | 5.0 | 12.0 | 0.00 | 0.00 | 0.00 | 63 | 1012.8 |
| 20260509220004 | 73 | 245 | 6.0 | 12.0 | 0.00 | 0.00 | 0.00 | 66 | 1013.0 |